Flag for U.S.A. Weather past 2 weeks in Fort Wayne, Indiana, U.S.A.

Now
34 °F

Light fog.


Feels Like: 34 °F
Forecast: 37 / 58 °F
Wind: No wind

Location: Fort Wayne International Airport

Current Time: Oct 23, 2014 at 4:08:28 AM

Latest Report: Oct 23, 2014 at 2:54 AM


Visibility: 8 mi

Pressure: 30.31 "Hg

Humidity: 92%

Dew point: 32 °F

Location of Fort WayneLocation

Historic Weather in Fort Wayne — Graph

°F

Fort Wayne temperature yesterday

Maximum temperature yesterday: 52 °F (at 3:54 PM)
Minimum temperature yesterday: 35 °F (at 11:54 PM)
Average temperature yesterday: 43 °F

Past Weeks' High & Low Weather Summary

 TemperatureHumidityPressure
High75 °F (Oct 13, 2:54 PM)100% (Oct 16, 3:54 AM)30.37 "Hg (Oct 16, 3:54 AM)
Low32 °F (Oct 19, 7:54 AM)31% (Oct 8, 4:54 PM)29.54 "Hg (Oct 14, 1:54 PM)
Average52 °F77%29.98 "Hg
* Reported Oct 8 2:54 AM — Oct 23 2:54 AM, Fort Wayne, Weather by CustomWeather, © 2014

Note: Actual official high and low records may vary slightly from our data, if they occured in-between our weather recording intervals... More about our weather records

Advertising

Fort Wayne weather history for previous 24 hours

 ConditionsComfort  
Time TempWeatherWind HumidityBarometerVisibility
2:54 AM
Oct 23
34 °FLight fog.No wind92%30.31 "Hg8 mi
1:54 AM35 °FClear.No wind92%30.30 "Hg10 mi
12:54 AM35 °FClear.No wind100%30.31 "Hg8 mi
11:54 PM
Oct 22
35 °FClear.No wind96%30.31 "Hg10 mi
10:54 PM38 °FClear.No wind90%30.31 "Hg10 mi
9:54 PM39 °FClear.3 mph89%30.31 "Hg10 mi
8:54 PM40 °FClear.6 mph89%30.31 "Hg10 mi
7:54 PM41 °FPassing clouds.8 mph86%30.32 "Hg10 mi
6:54 PM45 °FPassing clouds.6 mph80%30.32 "Hg10 mi
5:54 PM49 °FScattered clouds.7 mph71%30.32 "Hg10 mi
4:54 PM51 °FScattered clouds.7 mph69%30.32 "Hg10 mi
3:54 PM52 °FScattered clouds.5 mph66%30.32 "Hg10 mi
2:54 PM51 °FScattered clouds.3 mph66%30.33 "Hg10 mi
1:54 PM50 °FPartly sunny.8 mph68%30.34 "Hg10 mi
12:54 PM51 °FPartly sunny.10 mph71%30.36 "Hg10 mi
11:54 AM49 °FPartly sunny.8 mph71%30.37 "Hg10 mi
10:54 AM49 °FScattered clouds.8 mph71%30.36 "Hg10 mi
9:54 AM45 °FPassing clouds.6 mph80%30.35 "Hg10 mi
8:54 AM41 °FPassing clouds.7 mph86%30.34 "Hg10 mi
7:54 AM40 °FPassing clouds.6 mph89%30.32 "Hg10 mi
6:54 AM40 °FOvercast.6 mph89%30.31 "Hg10 mi
5:54 AM38 °FPassing clouds.7 mph90%30.30 "Hg10 mi
4:54 AM37 °FPassing clouds.6 mph89%30.28 "Hg10 mi
Weather by CustomWeather, © 2014

See weather overviewHow to use our weather pages